Regional Weather Roundup
Issued by NWS

Home | Current Version | Previous Version | Graphics & Text | Print | Product List | Glossary On
Versions: 1 2 3 4 5 6 7 8 9 10 11 12 13 14 15 16 17 18 19 20 21 22 23 24 25 26 27 28 29 30 31 32 33 34 35 36 37 38 39 40 41 42 43 44 45 46 47 48 49 50
000
ASUS45 KCYS 201210
RWRWY

WYOMING REGIONAL WEATHER ROUNDUP
NATIONAL WEATHER SERVICE CHEYENNE WY
600 AM MDT SAT SEP 20 2014

NOTE:  "FAIR" INDICATES FEW OR NO CLOUDS BELOW 12,000 FEET
WITH NO SIGNIFICANT WEATHER AND/OR OBSTRUCTIONS TO VISIBILITY.

WYZ001-201300-
YELLOWSTONE NATIONAL PARK

CITY           SKY/WX    TMP DP  RH WIND       PRES   REMARKS
LK YELLOWSTONE   N/A     33  32  96 NW3       30.40R
6HR MIN TEMP:  33; 6HR MAX TEMP:  42;

W YELLOWSTONE  NOT AVBL

$$
WYZ002>013-054>058-071-098>099-201300-
NORTHERN WYOMING

CITY           SKY/WX    TMP DP  RH WIND       PRES   REMARKS
JACKSON        CLEAR     37  37 100 CALM      30.33R
CODY             N/A    N/A N/A N/A MISG        N/A
GREYBULL       CLEAR     51  46  83 S6        30.15R
6HR MIN TEMP:  50; 6HR MAX TEMP:  63;

WORLAND        CLEAR     49  44  83 S7        30.16R
6HR MIN TEMP:  48; 6HR MAX TEMP:  63;

SHERIDAN       CLEAR     52  43  71 NW10      30.14R
6HR MIN TEMP:  49; 6HR MAX TEMP:  56;

BUFFALO        CLEAR     55  42  61 N7        30.19R
6HR MIN TEMP:  52; 6HR MAX TEMP:  57;

GILLETTE       CLEAR     51  45  79 W9        30.13R
6HR MIN TEMP:  51; 6HR MAX TEMP:  59;

HULETT         FAIR      54  45  71 MISG      30.12
NEWCASTLE      FAIR      54  43  66 N10       30.13

$$
WYZ014>020-022>026-101>103-201300-
CENTRAL WYOMING

CITY           SKY/WX    TMP DP  RH WIND       PRES   REMARKS
BIG PINEY      CLEAR     39  30  70 NW8       30.32R WCI  33
6HR MIN TEMP:  34; 6HR MAX TEMP:  50;

PINEDALE       SUNNY     36  34  93 N3        30.32S
DUBOIS         FAIR      43  34  70 NW17      30.33R
LANDER         CLEAR     55  36  48 W6        30.22R
6HR MIN TEMP:  53; 6HR MAX TEMP:  65;

RIVERTON       CLEAR     51  41  68 W6        30.23R
6HR MIN TEMP:  51; 6HR MAX TEMP:  61;

CASPER         CLEAR     45  40  82 W7        30.21R
6HR MIN TEMP:  44; 6HR MAX TEMP:  59;

DOUGLAS        CLEAR     45  42  89 NW3       30.20R
6HR MIN TEMP:  45; 6HR MAX TEMP:  55;


$$
WYZ021-027>030-104>119-201300-
SOUTHERN WYOMING

CITY           SKY/WX    TMP DP  RH WIND       PRES   REMARKS
EVANSTON       CLEAR     50  37  61 E6        30.31R
6HR MIN TEMP:  47; 6HR MAX TEMP:  59;

KEMMERER       SUNNY     41  34  75 N12       30.33R
FORT BRIDGER   FAIR      55  38  53 W6        30.33R
ROCK SPRINGS   PTCLDY    50  35  56 NW3       30.30R
6HR MIN TEMP:  46; 6HR MAX TEMP:  57;

DIXON          FAIR      41  35  80 CALM      30.31R
RAWLINS        CLEAR     41  32  70 NW6       30.28R
6HR MIN TEMP:  40; 6HR MAX TEMP:  55;

SARATOGA       FAIR      43  36  75 S8        30.30R
LARAMIE        CLEAR     41  35  79 SE5       30.28R
6HR MIN TEMP:  40; 6HR MAX TEMP:  54;

CHEYENNE       CLEAR     54  43  66 NW6       30.23R
6HR MIN TEMP:  54; 6HR MAX TEMP:  62;

TORRINGTON     CLEAR     52  46  80 NW8       30.13R
6HR MIN TEMP:  52; 6HR MAX TEMP:  64;

PINE BLUFFS    FAIR      48  45  87 CALM      30.19R

$$



USA.gov is the U.S. government's official web portal to all federal, state and local government web resources and services.